Kezdőlap
METAR-TAF:

METAR-TAF

Repülőterek :

Red Oak Municipal Airport

Red Oak, Iowa, Amerikai Egyesült Államok

földrajzi szélesség: 41-01N, földrajzi hosszúság: 095-16W, magasság: 318 m

Jelenlegi meteorológiai megfigyelések

A jelentés 19 perccel ezelõtt készült, 21:35 UTC
Szélcsend
Hőmérséklet 12°C
Páratartalom 62%
Légköri nyomás 1004 hPa
Látótávolság: 11.3 km
Kevés felhő 4000 lábon
Kevés felhő 5500 lábon
Szakadozott felhőzet 6000 lábon

METAR: KRDK 182135Z AUTO 00000KT 7SM FEW040 FEW055 BKN060 12/05 A2966 RMK AO2

Idő: 15:54 (21:54 UTC)


TAF: hiányzik

Meteorológiai megfigyelések és előrejelzések több, mint 4000 repülőtéren (METAR és TAF jelentéseket).

A térképen piros és sárga pontok jelzik az elérhető meteorológiai állomásokat.

Mozgassa az egeret a pont fölött, hogy megjelenjen az állomás neve.

Azután kattintson az időjárási megfigyelések és előrejelzések megtekintéséhez.

A térkép megváltoztatása: kattintson a fekete keresztel jelölt zöld gombra ráközelítéshez, a vonallal jelölt zöld gombra távolításhoz, vagy a zöld nyilakra a szomszédos térképek eléréséhez.


METAR-TAF: